FENGYUN 1C DEB

Satellite information

Favourite Embed

Satellite Type and Status

DEBRISIN ORBIT

Key statistics

Satellite FENGYUN 1C DEB at a glance.

Uptime

9495

Days in orbit

Revolutions

≈ 14.4

Per day

Orbit

SSO

Sun Synchronous Orbit

Inclination

99.0

Latest

Satellite identification and parameters

Extended collection of information and parameters for FENGYUN 1C DEB.

Object identification

Identified? True

Debris? True

Object name: FENGYUN 1C DEB

International designator: 1999-025BJY

Object number (NORAD): 31194

Object ID (CCSDS): 31194

Country: PEOPLES REPUBLIC OF CHINA (PRC)

Current information (Y/N): Y

RCS size: SMALL

Orbital parameters

Period: 100.322 minutes

Inclination: 98.9856 deg

SMA: 7151.933 km

Apoapsis: 815.104 km

Periapsis: 732.492 km

RAAN: 7.2779 deg

Eccentricy: 0.0057755

Argument of periapsis: 201.4118 deg

Mean anomaly: 158.4649 deg

Mean motion: 14.35382358 rev/day

Mean motion (dot): 0.00002438 rev/day2

B* drag term: 0.00084966 1/REarth

Two-line elements (TLE)

Creation date: May 8, 2025, 3:01 a.m.

Reference frame: TEME

Reference center: EARTH

Epoch: May 7, 2025, 2:38 a.m. UTC

TLE line 0: 0 FENGYUN 1C DEB

TLE line 1: 1 31194U 99025BJY 25127.11023983 .00002438 00000-0 84966-3 0 9990

TLE line 2: 2 31194 98.9856 7.2779 0057755 201.4118 158.4649 14.35382358939755

Live tracking on map

Real-time ground track for satellite FENGYUN 1C DEB.

In-orbit conjunctions

A list of the most updated potential collisions computed for object FENGYUN 1C DEB.

Target Orbit TCA Probability of collision Miss distance Type
CZ-6A DEB LEO 2025-03-01 22:20:23 0.0002463125 991.0 (m) DEBRIS
FALCONSAT SSO 2024-11-15 23:47:06 0.0001169245 932.0 (m) PAYLOAD
CZ-6A DEB LEO 2024-09-19 11:06:23 0.0004033718 118.0 (m) DEBRIS
CZ-6A DEB SSO 2024-08-01 20:02:53 0.0001373279 208.0 (m) DEBRIS
SL-8 R/B LEO 2024-05-30 16:06:09 0.0003867791 137.0 (m) ROCKET BODY

Associated space launch

Chinese polar orbiting meteorological satellite

FENGYUN 1C DEB was lifted into orbit during the mission ‘Long March 4B | Feng Yun 1C’, on board a Long March 4B space rocket.

The launch took place on May 10, 1999, 1:33 a.m. from Launch Complex 7.

For more information about the launch, click the button.

Launch to space Long March 4B | Feng Yun 1C
Long March 4B | Feng Yun 1C

Agency: N/A

Status: Launch Successful

Launch date: May 10, 1999, 1:33 a.m. UTC

Rocket: Long March 4B

Launch pad: Launch Complex 7

Location: Taiyuan Satellite Launch Center, People's Republic of China

...

Latest news about this satellite

There are no fresh news available about this satellite. Check back as we update our databases every day.


Newsletter sign-up

Weekly statistics, charts and insights to help you stay on top of the space industry.